RJA414 OSDI-OJAI

Flight info

Callsign RJA414
Flight time 0h 27m
Altitude 15000
Route BUSRA L513 LOSAR/N0358F140
Aircraft A320/M-SDE3FGHIRWY/LB1

Departure

Time 2026-04-25 23:59
Airport Damascus International Airport (OSDI)

Arrival

Time 2026-04-26 00:27
Airport Queen Alia International Airport (OJAI)
Time Latitude Longitude Altitude Speed Heading
2026-04-25 23:40 33.41261 36.51354 2005 ft 0 kts 228°
2026-04-25 23:49 33.41262 36.51354 2005 ft 1 kts 228°
2026-04-25 23:49 33.41277 36.51375 2001 ft 4 kts 228°
2026-04-25 23:49 33.41292 36.51394 2005 ft 3 kts 228°
2026-04-25 23:50 33.41311 36.51416 2002 ft 4 kts 207°
2026-04-25 23:50 33.41333 36.51421 2003 ft 4 kts 147°
2026-04-25 23:50 33.41338 36.51417 2002 ft 0 kts 137°
2026-04-25 23:54 33.41337 36.51419 2005 ft 1 kts 137°
2026-04-25 23:54 33.41326 36.51430 2004 ft 3 kts 137°
2026-04-25 23:55 33.41307 36.51452 2005 ft 5 kts 137°
2026-04-25 23:55 33.41278 36.51483 2005 ft 6 kts 140°
2026-04-25 23:55 33.41239 36.51523 2005 ft 8 kts 139°
2026-04-25 23:55 33.41193 36.51576 2005 ft 10 kts 121°
2026-04-25 23:56 33.41183 36.51664 2005 ft 12 kts 93°
2026-04-25 23:56 33.41178 36.51769 2005 ft 14 kts 93°
2026-04-25 23:56 33.41171 36.51890 2005 ft 15 kts 94°
2026-04-25 23:56 33.41125 36.52005 2005 ft 17 kts 138°
2026-04-25 23:57 33.41030 36.52105 2004 ft 19 kts 138°
2026-04-25 23:57 33.40927 36.52214 2005 ft 21 kts 139°
2026-04-25 23:57 33.40811 36.52336 2005 ft 23 kts 139°
2026-04-25 23:57 33.40689 36.52437 2004 ft 21 kts 167°
2026-04-25 23:58 33.40557 36.52375 2004 ft 23 kts 230°
2026-04-25 23:58 33.40347 36.52093 2003 ft 76 kts 229°
2026-04-25 23:58 33.39867 36.51447 2003 ft 129 kts 228°
2026-04-25 23:58 33.39169 36.50513 2012 ft 170 kts 229°
2026-04-25 23:59 33.38375 36.49436 2561 ft 171 kts 230°
2026-04-25 23:59 33.37595 36.48377 3247 ft 169 kts 229°
2026-04-25 23:59 33.36778 36.47284 3567 ft 186 kts 228°
2026-04-25 23:59 33.35793 36.46153 3804 ft 209 kts 208°
2026-04-26 00:00 33.34322 36.45808 4076 ft 228 kts 176°
2026-04-26 00:00 33.32666 36.46116 4389 ft 253 kts 167°
2026-04-26 00:00 33.30904 36.46640 4988 ft 267 kts 165°
2026-04-26 00:00 33.29091 36.47204 5867 ft 270 kts 166°
2026-04-26 00:01 33.27256 36.47741 6775 ft 272 kts 167°
2026-04-26 00:01 33.25399 36.48244 7636 ft 275 kts 168°
2026-04-26 00:01 33.23527 36.48718 8491 ft 277 kts 169°
2026-04-26 00:01 33.21618 36.49175 9344 ft 280 kts 169°
2026-04-26 00:02 33.19695 36.49623 10133 ft 284 kts 170°
2026-04-26 00:02 33.17679 36.50081 10442 ft 306 kts 170°
2026-04-26 00:02 33.15510 36.50570 10649 ft 328 kts 171°
2026-04-26 00:02 33.13222 36.51086 11163 ft 337 kts 171°
2026-04-26 00:03 33.10906 36.51609 11876 ft 340 kts 171°
2026-04-26 00:03 33.08603 36.52129 12598 ft 343 kts 171°
2026-04-26 00:03 33.06219 36.52668 13349 ft 345 kts 171°
2026-04-26 00:03 33.03876 36.53198 14036 ft 347 kts 172°
2026-04-26 00:04 33.01478 36.53527 14657 ft 349 kts 177°
2026-04-26 00:04 32.99052 36.53784 14924 ft 350 kts 177°
2026-04-26 00:04 32.96605 36.54042 15005 ft 361 kts 177°
2026-04-26 00:04 32.94047 36.54309 15012 ft 374 kts 177°
2026-04-26 00:05 32.91438 36.54582 15010 ft 377 kts 177°
2026-04-26 00:05 32.88823 36.54857 15017 ft 378 kts 177°
2026-04-26 00:05 32.86206 36.55131 15017 ft 378 kts 177°
2026-04-26 00:05 32.83583 36.55405 15017 ft 378 kts 177°
2026-04-26 00:06 32.80961 36.55680 15022 ft 378 kts 177°
2026-04-26 00:06 32.78347 36.55953 15023 ft 378 kts 177°
2026-04-26 00:06 32.75726 36.56227 15022 ft 378 kts 177°
2026-04-26 00:06 32.73104 36.56504 15022 ft 378 kts 177°
2026-04-26 00:07 32.70488 36.56787 15019 ft 378 kts 177°
2026-04-26 00:07 32.67867 36.57105 15020 ft 378 kts 176°
2026-04-26 00:07 32.65258 36.57449 15022 ft 378 kts 176°
2026-04-26 00:07 32.62643 36.57808 15023 ft 378 kts 176°
2026-04-26 00:08 32.60031 36.58169 15024 ft 378 kts 176°
2026-04-26 00:08 32.57416 36.58526 15025 ft 378 kts 176°
2026-04-26 00:08 32.54803 36.58875 15026 ft 378 kts 176°
2026-04-26 00:08 32.52189 36.59217 15024 ft 378 kts 176°
2026-04-26 00:09 32.49572 36.59555 15025 ft 378 kts 176°
2026-04-26 00:09 32.46952 36.59894 15026 ft 378 kts 176°
2026-04-26 00:09 32.44373 36.60228 15021 ft 378 kts 176°
2026-04-26 00:09 32.41724 36.60573 15022 ft 378 kts 176°
2026-04-26 00:10 32.39140 36.60910 15025 ft 378 kts 176°
2026-04-26 00:10 32.36517 36.61252 15026 ft 378 kts 176°
2026-04-26 00:10 32.33898 36.61593 15024 ft 378 kts 177°
2026-04-26 00:10 32.31272 36.61701 15024 ft 376 kts 181°
2026-04-26 00:11 32.28652 36.61732 15023 ft 376 kts 181°
2026-04-26 00:11 32.26028 36.61764 15013 ft 376 kts 182°
2026-04-26 00:11 32.23405 36.61796 15016 ft 376 kts 182°
2026-04-26 00:11 32.20791 36.61830 15017 ft 376 kts 182°
2026-04-26 00:12 32.18174 36.61862 15018 ft 376 kts 182°
2026-04-26 00:12 32.15554 36.61893 15014 ft 376 kts 182°
2026-04-26 00:12 32.12943 36.61926 15014 ft 376 kts 181°
2026-04-26 00:12 32.10322 36.61960 15014 ft 376 kts 182°
2026-04-26 00:13 32.07763 36.61655 15005 ft 373 kts 194°
2026-04-26 00:13 32.05321 36.60683 15005 ft 371 kts 206°
2026-04-26 00:13 32.03130 36.59099 15004 ft 370 kts 218°
2026-04-26 00:13 32.01290 36.56991 14998 ft 370 kts 229°
2026-04-26 00:14 31.99634 36.54661 15004 ft 370 kts 229°
2026-04-26 00:14 31.97973 36.52331 15003 ft 371 kts 229°
2026-04-26 00:14 31.96311 36.50007 15008 ft 371 kts 229°
2026-04-26 00:14 31.94647 36.47688 15001 ft 371 kts 229°
2026-04-26 00:15 31.92976 36.45362 14999 ft 372 kts 229°
2026-04-26 00:15 31.91305 36.43037 15005 ft 372 kts 229°
2026-04-26 00:15 31.89679 36.40655 14992 ft 373 kts 234°
2026-04-26 00:15 31.88426 36.37973 14996 ft 376 kts 245°
2026-04-26 00:16 31.87645 36.35070 15007 ft 379 kts 256°
2026-04-26 00:16 31.87162 36.32015 15011 ft 380 kts 257°
2026-04-26 00:16 31.86684 36.28959 15014 ft 380 kts 257°
2026-04-26 00:16 31.86201 36.25900 15019 ft 380 kts 257°
2026-04-26 00:17 31.85714 36.22847 15031 ft 380 kts 257°
2026-04-26 00:17 31.85221 36.19779 15028 ft 381 kts 257°
2026-04-26 00:17 31.84731 36.16725 15024 ft 373 kts 257°
2026-04-26 00:17 31.84267 36.13802 14916 ft 356 kts 257°
2026-04-26 00:18 31.83811 36.10930 14124 ft 361 kts 257°
2026-04-26 00:18 31.83342 36.08013 13399 ft 362 kts 257°
2026-04-26 00:18 31.82875 36.05111 12776 ft 359 kts 257°
2026-04-26 00:18 31.82413 36.02240 12191 ft 356 kts 258°
2026-04-26 00:19 31.81956 35.99388 11622 ft 352 kts 258°
2026-04-26 00:19 31.81506 35.96579 11144 ft 346 kts 258°
2026-04-26 00:19 31.81071 35.93866 11016 ft 330 kts 258°
2026-04-26 00:19 31.80659 35.91302 10900 ft 316 kts 258°
2026-04-26 00:20 31.80258 35.88810 10777 ft 304 kts 258°
2026-04-26 00:20 31.79869 35.86412 10656 ft 292 kts 258°
2026-04-26 00:20 31.79494 35.84105 10502 ft 283 kts 258°
2026-04-26 00:20 31.79127 35.81858 9989 ft 278 kts 259°
2026-04-26 00:21 31.78764 35.79635 9334 ft 276 kts 259°
2026-04-26 00:21 31.78403 35.77429 8746 ft 272 kts 260°
2026-04-26 00:21 31.78039 35.75325 8504 ft 256 kts 255°
2026-04-26 00:21 31.77173 35.73521 8144 ft 255 kts 227°
2026-04-26 00:22 31.75676 35.72398 7848 ft 264 kts 202°
2026-04-26 00:22 31.73800 35.72273 7344 ft 275 kts 173°
2026-04-26 00:22 31.71920 35.72678 6797 ft 275 kts 170°
2026-04-26 00:22 31.70186 35.73576 6209 ft 279 kts 138°
2026-04-26 00:23 31.69196 35.75458 5878 ft 269 kts 100°
2026-04-26 00:23 31.69307 35.77558 5593 ft 256 kts 63°
2026-04-26 00:23 31.70127 35.79388 5263 ft 254 kts 62°
2026-04-26 00:23 31.70521 35.81416 4963 ft 256 kts 81°
2026-04-26 00:24 31.70729 35.83485 4614 ft 250 kts 79°
2026-04-26 00:24 31.70991 35.85420 4305 ft 229 kts 77°
2026-04-26 00:24 31.71253 35.87196 4030 ft 217 kts 78°
2026-04-26 00:24 31.71496 35.88862 3774 ft 198 kts 78°
2026-04-26 00:25 31.71719 35.90390 3533 ft 178 kts 78°
2026-04-26 00:25 31.71916 35.91748 3290 ft 161 kts 79°
2026-04-26 00:25 31.72100 35.93009 3085 ft 152 kts 79°
2026-04-26 00:25 31.72271 35.94206 2871 ft 146 kts 80°
2026-04-26 00:26 31.72438 35.95369 2677 ft 143 kts 79°
2026-04-26 00:26 31.72612 35.96509 2499 ft 141 kts 79°
2026-04-26 00:26 31.72778 35.97616 2409 ft 126 kts 79°
2026-04-26 00:26 31.72892 35.98439 2408 ft 77 kts 81°
2026-04-26 00:27 31.72957 35.98873 2410 ft 40 kts 80°
2026-04-26 00:27 31.73000 35.99189 2411 ft 38 kts 80°
2026-04-26 00:27 31.72988 35.99405 2409 ft 23 kts 103°
2026-04-26 00:27 31.72954 35.99526 2409 ft 24 kts 110°
2026-04-26 00:28 31.72895 35.99708 2409 ft 22 kts 111°
2026-04-26 00:28 31.72806 35.99725 2410 ft 14 kts 243°
2026-04-26 00:28 31.72782 35.99603 2410 ft 16 kts 260°
2026-04-26 00:28 31.72761 35.99465 2411 ft 18 kts 260°
2026-04-26 00:29 31.72738 35.99309 2409 ft 20 kts 260°
2026-04-26 00:29 31.72713 35.99137 2409 ft 22 kts 261°
2026-04-26 00:29 31.72688 35.98953 2409 ft 19 kts 261°
2026-04-26 00:29 31.72598 35.98900 2410 ft 17 kts 172°
2026-04-26 00:30 31.72527 35.98977 2409 ft 15 kts 99°
2026-04-26 00:30 31.72588 35.99002 2409 ft 12 kts 341°
2026-04-26 00:30 31.72617 35.98995 2411 ft 0 kts 348°